www.pogodaiklimat.ru
ПОГОДА в Ангермюнде

Архив погоды в Ангермюнде (Германия)

Время
(UTC), дата
04 25.06
05 25.06
06 25.06
07 25.06
08 25.06
09 25.06
10 25.06
11 25.06
12 25.06
13 25.06
14 25.06
15 25.06
16 25.06
17 25.06
18 25.06
19 25.06
20 25.06
21 25.06
22 25.06
23 25.06
00 26.06
01 26.06
02 26.06
03 26.06
04 26.06
05 26.06
06 26.06
07 26.06
08 26.06
09 26.06
10 26.06
11 26.06
12 26.06
13 26.06
14 26.06
15 26.06
16 26.06
17 26.06
18 26.06
19 26.06
20 26.06
21 26.06
22 26.06
23 26.06
00 27.06
01 27.06
02 27.06
03 27.06
04 27.06
05 27.06
06 27.06
07 27.06
08 27.06
09 27.06
10 27.06
11 27.06
12 27.06
13 27.06
14 27.06
15 27.06
16 27.06
17 27.06
18 27.06
19 27.06
20 27.06
21 27.06
22 27.06
23 27.06
00 28.06
01 28.06
02 28.06
03 28.06
04 28.06
05 28.06
06 28.06
07 28.06
08 28.06
09 28.06
10 28.06
11 28.06
12 28.06
13 28.06
14 28.06
15 28.06
16 28.06
17 28.06
18 28.06
19 28.06
20 28.06
21 28.06
22 28.06
23 28.06
00 29.06
01 29.06
02 29.06
03 29.06
04 29.06
05 29.06
06 29.06
07 29.06
08 29.06
09 29.06
10 29.06
11 29.06
12 29.06
13 29.06
14 29.06
15 29.06
16 29.06
17 29.06
18 29.06
19 29.06
20 29.06
21 29.06
22 29.06
23 29.06
00 30.06
01 30.06
02 30.06
03 30.06
04 30.06
05 30.06
06 30.06
07 30.06
08 30.06
09 30.06
10 30.06
11 30.06
12 30.06
13 30.06
14 30.06
15 30.06
16 30.06
17 30.06
18 30.06
19 30.06
20 30.06
21 30.06
22 30.06
23 30.06
00 1.07
01 1.07
02 1.07
03 1.07
04 1.07
05 1.07
06 1.07
07 1.07
08 1.07
09 1.07
10 1.07
11 1.07
12 1.07
13 1.07
14 1.07
15 1.07
16 1.07
17 1.07
18 1.07
19 1.07
20 1.07
21 1.07
22 1.07
23 1.07
00 2.07
01 2.07
02 2.07
03 2.07
04 2.07
05 2.07
Ветер
(напр.,м/с)
Видим. Явления Облачность Т
(С)
Тd
(С)
f
(%)
Тe
(С)
Тes
(С)
Комфортность P
(гПа)
Po
(гПа)
Тmin
(С)
Tmax
(С)
R
(мм)
R24
(мм)
S
(см)
Ю 1-2
{3}
28 км 9/0 +20.0 +17.4 85 +24 +24 комфорт 1010.0 1003.6
ЮВ 1-2
{3}
23 км 10/0 +20.1 +17.5 85 +24 +25 комфорт 1010.8 1004.4
ЮВ 2 18 км 10/0 +20.6 +17.4 82 +25 +27 комфорт 1011.5 1005.1 +19.5 +28.8 0.2
штиль 0-1
{2}
22 км в посл. час дождь 10/0 +20.8 +17.9 83 +24 +30 комфорт 1011.8 1005.4
З 1-2
{2}
27 км слаб. дождь 10/0 +21.1 +17.5 80 +25 +31 комфорт 1011.5 1005.1
З 1 40 км в посл. час дождь 10/0 +22.9 +16.9 69 +28 +36 душно 1011.7 1005.3 0.0
ЮЗ 1 45 км 10/0 2000 м +24.7 +16.7 61 +28 +38 душно 1011.8 1005.5
В 2 35 км 10/0 +26.7 +16.3 53 +30 +39 душно 1011.6 1005.3
ЮВ 3 35 км 9/9 1300 м +28.2 +15.9 47 +31 +33 душно 1011.5 1005.2
В 1 35 км 9/9 1500 м +28.0 +15.2 46 +31 +32 душно 1011.4 1005.1
Ю 3 40 км в посл. час осадки 10/10 1500 м +28.3 +14.9 44 +31 +31 душно 1011.5 1005.2
Ю 2 40 км в посл. час дождь 10/0 +29.4 +15.5 43 +32 +36 душно 1010.9 1004.7 0.0
ЮЗ 2 55 км 9/0 +28.9 +15.4 44 +32 +34 душно 1011.0 1004.8
СВ 2 45 км 10/10 1500 м +28.7 +16.3 47 +32 +32 душно 1011.2 1004.9
ЮВ 2 11 км дождь 10/10 1500 м +24.9 +18.7 68 +30 +30 душно 1011.6 1005.3 +20.6 +30.1 0.5
З 3 29 км в посл. час дождь 9/9 900 м +21.3 +19.2 88 +26 +26 душно 1012.1 1005.7
С 1 35 км в посл. час дождь 10/0 2000 м +21.2 +19.1 88 +26 +26 душно 1012.8 1006.4
ЮЗ 1 28 км 10/0 +20.2 +18.5 90 +25 +25 комфорт 1013.0 1006.6 0.1
СВ 1-1
{1}
13 км 3/0 +19.3 +18.1 93 +22 +22 комфорт 1012.9 1006.4
Ю 1-2
{2}
5000 м в посл. час туман 3/0 +18.8 +18.2 96 +21 +21 комфорт 1013.3 1006.8
штиль 0 8000 м ясно +18.0 +17.2 95 +18 +18 1013.2 1006.7
В 2-3
{3}
8000 м ясно +17.7 +17.1 96 +18 +18 1013.5 1007.0
ЮВ 2-2
{2}
8000 м в посл. час туман ясно +17.7 +17.2 97 +18 +18 1013.7 1007.2
Ю 2-2
{3}
13 км ясно +17.7 +17.1 96 +18 +18 1013.9 1007.4
ЮВ 1-2
{3}
13 км 6/0 +18.2 +17.2 94 +20 +20 1014.4 1007.9
ЮВ 2-3
{3}
10 км 3/0 +19.2 +17.9 92 +22 +23 комфорт 1014.6 1008.1
Ю 1 25 км ясно +22.3 +18.9 81 +28 +33 душно 1014.7 1008.3 +17.1 +24.8 0.1
ЮВ 2-3
{4}
29 км ясно +24.4 +18.7 71 +29 +37 душно 1014.9 1008.5
Ю 2-4
{5}
30 км ясно +26.2 +18.1 61 +31 +42 очень
душно
1014.9 1008.6
ЮВ 2 40 км 4/0 +28.0 +18.4 56 +33 +44 очень
душно
1014.7 1008.4
ЮВ 4-6
{7}
45 км 9/0 +28.7 +16.6 48 +32 +38 душно 1014.7 1008.4
ЮВ 3 40 км 4/4 1500 м +29.6 +16.2 44 +33 +41 душно 1014.6 1008.3
Ю 5 60 км 3/3 1500 м +30.6 +14.4 37 +32 +38 жарко 1014.2 1008.0
Ю 4 55 км 10/0 +30.0 +15.4 41 +33 +37 душно 1014.1 1007.9
Ю 3 60 км 9/0 +30.7 +15.7 40 +33 +39 душно 1013.9 1007.7
ЮВ 5-8
{9}
55 км ясно +31.2 +13.3 34 +32 +37 жарко 1013.8 1007.6
Ю 3-5
{8}
40 км 1/0 +31.6 +14.1 35 +33 +37 жарко 1013.6 1007.4
ЮВ 4-6
{7}
50 км 5/0 +30.9 +13.2 34 +32 +33 жарко 1013.5 1007.3
ЮВ 4 50 км ясно +29.9 +14.4 39 +32 +32 жарко 1013.5 1007.3 +22.2 +31.9
ЮВ 2-3
{6}
50 км ясно +27.5 +14.7 46 +30 +30 жарко 1014.0 1007.7
В 1 50 км 10/0 +25.6 +15.6 54 +29 +29 душно 1014.4 1008.1
ЮВ 1 35 км 5/0 +22.9 +16.0 65 +27 +27 душно 1014.6 1008.2
З 1-1
{2}
35 км 6/0 +20.5 +16.1 76 +25 +25 комфорт 1014.6 1008.2
С 2-2
{3}
40 км ясно +19.9 +15.8 77 +23 +23 комфорт 1014.6 1008.1
С 1 30 км ясно +19.0 +15.9 82 +21 +21 комфорт 1014.1 1007.6
С 1-2
{2}
30 км ясно +18.7 +16.1 85 +21 +21 комфорт 1014.2 1007.7
СВ 1-2
{2}
27 км ясно +18.1 +16.0 88 +19 +19 1014.3 1007.8
В 1-2
{2}
22 км ясно +17.1 +15.1 88 +18 +18 1014.5 1008.0
ЮВ 1-1
{2}
29 км ясно +18.0 +15.4 85 +19 +20 1014.7 1008.2
Ю 1-2
{2}
35 км ясно +21.8 +15.3 67 +25 +28 комфорт 1014.4 1008.0
ЮВ 3 45 км ясно +23.9 +15.8 60 +27 +31 жарко 1014.2 1007.8 +17.0 +29.9
ЮВ 2-3
{4}
40 км ясно +26.3 +16.4 54 +30 +37 душно 1014.2 1007.9
ЮВ 3-4
{5}
65 км ясно +28.6 +17.0 49 +32 +41 душно 1014.0 1007.7
ЮВ 4 45 км 1/0 +30.5 +16.1 42 +34 +42 очень
душно
1013.5 1007.3
Ю 5-8
{9}
50 км 3/0 +31.5 +14.9 37 +34 +41 душно 1013.2 1007.0
Ю 5-9
{10}
45 км ясно +32.8 +14.5 33 +34 +43 очень
жарко
1012.8 1006.6
Ю 5-10
{11}
60 км ясно +33.2 +12.6 29 +34 +42 очень
жарко
1012.5 1006.3
ЮВ 6 40 км 10/0 +33.5 +13.0 29 +34 +37 очень
жарко
1012.0 1005.8
Ю 4 50 км 4/0 +33.9 +13.7 30 +35 +41 очень
жарко
1012.0 1005.8
Ю 4 60 км 10/0 +33.6 +14.4 31 +35 +38 душно 1011.6 1005.4
ЮВ 5-8
{8}
40 км 10/0 +33.9 +13.7 30 +35 +36 очень
жарко
1011.4 1005.2
ЮВ 3 45 км 10/0 +32.3 +14.8 35 +34 +35 душно 1011.4 1005.2
ЮВ 2 60 км 9/0 +30.8 +15.1 39 +33 +34 душно 1011.4 1005.2 +24.0 +34.2
З 5 45 км 10/0 +28.2 +17.6 53 +33 +33 очень
душно
1012.4 1006.1
СЗ 4 45 км в посл. час дождь 9/0 +26.0 +18.0 61 +30 +30 душно 1013.8 1007.5
СЗ 5 40 км 9/0 +23.6 +18.7 74 +28 +28 душно 1014.5 1008.1 0.0
СЗ 7-10
{10}
26 км 6/0 +22.0 +18.4 80 +27 +27 душно 1014.8 1008.4
СЗ 7 25 км 8/8 360 м +20.5 +17.5 83 +24 +24 комфорт 1015.7 1009.3
СЗ 4 25 км 10/0 +20.3 +17.5 84 +24 +24 комфорт 1015.7 1009.2
З 5 24 км 10/10 300 м +19.8 +17.4 86 +22 +22 комфорт 1016.6 1010.1
СЗ 5 11 км слаб. дождь 9/9 1500 м +18.7 +17.8 95 +20 +20 1017.0 1010.5
З 2 8000 м в посл. час дождь 10/10 210 м +18.9 +18.1 95 +21 +21 комфорт 1018.1 1011.6 3
З 4 7000 м слаб. дождь 10/10 210 м +18.5 +17.4 93 +19 +19 1018.9 1012.4
З 5 8000 м слаб. дождь 9/9 240 м +18.0 +16.9 93 +18 +18 1018.5 1012.0
СЗ 6 18 км в посл. час дождь 10/10 200 м +18.1 +16.9 93 +18 +18 1018.3 1011.8 +18.0 +30.9 3
СЗ 5 55 км 10/10 420 м +17.2 +15.5 90 +17 +17 1019.4 1012.8
СЗ 3 55 км в посл. час морось 9/9 330 м +17.3 +15.5 89 +17 +18 1020.6 1014.0
СЗ 3 35 км слаб. морось 10/10 330 м +17.4 +15.6 89 +17 +17 1021.3 1014.7 0.0
СЗ 4 50 км слаб. морось 10/10 540 м +18.4 +15.6 84 +19 +19 1021.7 1015.2
З 3 60 км в посл. час дождь 9/9 540 м +19.4 +14.9 75 +21 +23 комфорт 1021.7 1015.2
З 2 >70 км 1/0 2000 м +21.9 +13.1 57 +25 +40 комфорт 1021.5 1015.0 0.0
СЗ 1 60 км 9/9 1200 м +22.8 +13.6 56 +26 +28 жарко 1021.2 1014.8
С 3 >70 км 9/9 1500 м +22.6 +13.6 57 +26 +27 жарко 1021.1 1014.7
С 3 55 км 4/4 1350 м +23.4 +11.5 47 +26 +30 жарко 1020.6 1014.2
В 3 >70 км 6/6 1500 м +23.1 +12.0 50 +26 +27 жарко 1020.2 1013.8
СВ 1-2
{5}
65 км 3/0 +23.2 +11.0 46 +25 +28 комфорт 1019.9 1013.5
СВ 1 >70 км ясно +22.0 +12.8 56 +25 +26 комфорт 1019.9 1013.4 +17.0 +24.8
СВ 3-6
{6}
65 км ясно +20.8 +13.6 63 +24 +24 комфорт 1020.2 1013.7
СВ 3-5
{6}
65 км ясно +18.4 +13.3 72 +19 +19 1020.9 1014.4
СВ 3 45 км 9/0 +16.6 +12.9 79 +16 +16 1021.2 1014.6
СВ 1-2
{4}
55 км 6/0 +15.1 +12.1 82 +16 +16 1021.4 1014.8
С 1-2
{3}
50 км ясно +14.6 +11.8 83 +15 +15 1021.2 1014.6
СВ 1 50 км 1/0 +13.5 +11.6 88 +14 +14 1021.1 1014.4
СВ 2-2
{3}
45 км 9/0 +13.0 +11.5 91 +12 +12 1020.4 1013.7
СВ 1-2
{2}
21 км 10/0 +12.0 +10.8 92 +12 +12 1020.0 1013.3
С 1 26 км 10/0 +11.8 +10.9 94 +12 +12 1019.9 1013.2
СВ 2 30 км 9/0 +12.9 +11.6 92 +12 +12 1019.8 1013.1
ЮВ 1-1
{4}
45 км 6/0 +14.8 +12.3 85 +15 +17 1020.1 1013.5
ЮВ 1 65 км 4/0 +18.1 +12.5 70 +19 +24 1020.1 1013.6 +11.5 +23.0
В 2 55 км 9/0 +20.2 +12.0 59 +23 +27 комфорт 1019.9 1013.4
В 4 50 км 10/0 +21.1 +11.8 55 +23 +27 комфорт 1019.5 1013.0
В 3 35 км 10/0 +22.0 +11.7 52 +24 +30 комфорт 1019.0 1012.5
В 3-5
{6}
45 км 10/0 +22.8 +11.3 48 +25 +32 комфорт 1018.8 1012.4
В 2-4
{5}
40 км 10/0 +23.1 +9.9 43 +25 +33 комфорт 1018.2 1011.8
В 3 19 км 10/0 +23.5 +9.6 41 +24 +31 комфорт 1017.9 1011.5
В 4 8000 м 10/0 +23.5 +8.6 39 +24 +29 комфорт 1017.4 1011.0
В 4 45 км 10/0 +24.8 +9.9 39 +26 +29 жарко 1017.2 1010.8
В 4 10 км 9/0 +24.9 +10.3 40 +26 +29 жарко 1016.6 1010.2
В 3 55 км 10/0 +24.6 +10.2 40 +26 +28 жарко 1015.8 1009.4
В 3-4
{5}
>70 км 9/0 +24.3 +10.4 41 +25 +26 комфорт 1015.5 1009.1
В 3 65 км 3/0 +24.0 +11.2 45 +25 +26 комфорт 1015.4 1009.0 +17.8 +25.8
В 2 55 км 10/0 2000 м +23.2 +11.6 48 +26 +26 жарко 1015.3 1008.9
СВ 3 50 км 10/0 +19.9 +14.7 72 +22 +22 комфорт 1015.9 1009.4
СВ 3 45 км 10/10 1410 м +18.8 +14.6 77 +20 +20 1015.7 1009.2
СВ 2-4
{4}
50 км 9/9 1350 м +18.1 +14.7 81 +19 +19 1015.5 1009.0
С 2 40 км 8/8 1320 м +17.5 +14.4 82 +18 +18 1015.3 1008.8
С 2 45 км 10/10 1000 м +16.6 +14.1 85 +17 +17 1015.0 1008.5
С 1 40 км 10/10 1230 м +16.5 +14.0 85 +17 +17 1015.0 1008.5
С 2 35 км 10/10 1230 м +16.7 +14.1 85 +17 +17 1014.7 1008.2
С 2 35 км 10/10 1320 м +16.9 +14.2 84 +17 +17 1014.2 1007.7
С 2 45 км 9/0 +17.2 +14.2 83 +18 +18 1014.0 1007.5
СВ 2 9000 м слаб. морось с дождем 10/0 2000 м +17.3 +14.5 84 +18 +19 1014.0 1007.5
С 1 14 км слаб. дождь 9/9 600 м +16.4 +15.4 94 +17 +18 1013.8 1007.3 +16.2 +24.0 4
СВ 2 18 км слаб. дождь 10/10 1140 м +17.0 +16.1 94 +17 +17 1014.1 1007.6
С 1 14 км в посл. час дождь 10/10 1500 м +17.3 +16.3 94 +18 +18 1014.1 1007.6
С 2 17 км в посл. час дождь 10/10 150 м +18.8 +17.6 93 +21 +21 комфорт 1013.9 1007.4 0.9
СВ 2 18 км 10/10 240 м +20.9 +18.1 84 +26 +26 душно 1013.5 1007.1
СВ 2 19 км 10/10 420 м +21.8 +17.6 77 +26 +26 душно 1013.3 1006.9
В 2 35 км 10/10 480 м +21.8 +17.5 77 +26 +26 душно 1013.2 1006.8
В 3 45 км 10/10 500 м +21.7 +18.0 79 +26 +26 душно 1013.2 1006.8
ЮВ 2 >70 км 10/10 660 м +22.7 +17.6 73 +28 +28 душно 1013.0 1006.6
В 1 55 км 10/10 1350 м +23.8 +17.2 67 +28 +28 душно 1012.8 1006.4
Ю 2 55 км 9/9 1470 м +23.6 +17.7 70 +28 +28 душно 1012.5 1006.1
ЮВ 1-2
{2}
40 км 3/0 +24.7 +17.3 63 +29 +31 душно 1012.1 1005.8
СВ 2 55 км 6/0 +24.4 +17.3 65 +28 +29 душно 1011.8 1005.5 +16.4 +25.0
С 2-3
{4}
45 км ясно +22.4 +18.1 77 +28 +28 душно 1012.3 1005.9
СВ 1-2
{3}
28 км ясно +20.1 +17.8 87 +24 +24 комфорт 1012.5 1006.1
В 2-2
{4}
22 км ясно +19.3 +17.6 90 +22 +22 комфорт 1012.4 1005.9
СВ 1-2
{2}
18 км ясно +18.4 +17.2 93 +20 +20 1012.6 1006.1
С 1-1
{3}
8000 м ясно +17.3 +16.4 94 +18 +18 1012.5 1006.0
СВ 2 5000 м дымка ясно +17.4 +16.8 96 +18 +18 1012.6 1006.1
С 1-2
{2}
3100 м дымка 10/0 +17.2 +16.7 97 +18 +18 1012.5 1006.0
СЗ 1-1
{2}
200 м туман 10/10 <50 м +16.4 +16.1 98 +17 +17 1012.0 1005.5
С 1 900 м туман 10/10 <50 м +16.1 +15.8 98 +17 +17 1011.9 1005.4
штиль 0-1
{2}
700 м туман 9/9 <50 м +16.5 +16.1 97 +16 +16 1012.3 1005.8
С 1-2
{2}
6000 м в посл. час туман 1/0 +18.2 +17.2 94 +20 +22 1012.2 1005.7
СВ 1 10 км 5/0 +21.2 +19.0 87 +26 +30 душно 1012.2 1005.8 +15.9 +24.5
В 1 23 км 6/6 1300 м +25.2 +19.9 72 +31 +34 очень
душно
1012.1 1005.8
ЮВ 2 27 км 6/6 1440 м +26.1 +19.4 67 +32 +36 очень
душно
1012.0 1005.7
С 1 30 км 6/6 1440 м +27.7 +19.0 59 +33 +39 очень
душно
1011.7 1005.4
З 1 29 км 8/8 930 м +27.6 +19.0 59 +33 +37 очень
душно
1011.5 1005.2
Ю 1 35 км 9/9 1410 м +28.2 +17.8 53 +33 +35 очень
душно
1011.3 1005.0
СЗ 4 17 км в посл. час дождь 9/9 360 м +22.8 +20.7 88 +30 +31 очень
душно
1012.0 1005.6 9
З 7 >70 км 10/10 900 м +20.9 +17.3 80 +24 +24 комфорт 1013.1 1006.7
СЗ 6 55 км 9/9 500 м +20.4 +17.1 81 +23 +24 комфорт 1013.7 1007.3
З 7 >70 км 10/10 540 м +20.6 +16.7 78 +24 +24 комфорт 1014.6 1008.2
З 7-10
{10}
>70 км 10/10 420 м +18.6 +15.7 83 +19 +19 1015.7 1009.2
З 5-10
{10}
60 км слаб. дождь 10/10 360 м +17.9 +15.6 86 +17 +17 1016.5 1010.0
З 7 10 км морось 10/10 300 м +16.5 +15.0 91 +15 +15 1017.0 1010.4 +16.5 +28.4 0.0
З 6 60 км в посл. час морось 10/10 420 м +16.6 +14.4 87 +15 +15 1017.5 1010.9
З 5-8
{8}
20 км 9/9 400 м +16.3 +14.3 88 +15 +15 1019.2 1012.6
З 5 9000 м слаб. дождь 10/10 540 м +15.0 +13.7 92 +14 +14 1020.5 1013.9 0.6
З 5 30 км слаб. дождь 10/10 1140 м +14.7 +12.9 89 +13 +13 1020.5 1013.9
З 4 15 км слаб. дождь 10/0 2000 м +14.3 +13.5 95 +13 +13 1020.9 1014.3
З 3 22 км в посл. час дождь 10/0 2000 м +14.5 +13.5 94 +14 +14 1021.2 1014.6 2
З 1-3
{4}
10 км 9/0 +14.4 +13.7 96 +15 +15 1021.6 1015.0
Ю 2 6000 м дымка 6/6 1500 м +14.0 +13.4 96 +13 +13 1021.5 1014.9
З 2 15 км 8/0 2000 м +14.0 +12.9 93 +13 +13 1021.9 1015.3
ЮЗ 2-3
{4}
15 км 5/0 2000 м +14.2 +12.9 92 +14 +14 1022.7 1016.1
ЮВ 1-2
{3}
16 км ясно +14.9 +13.4 91 +15 +18 1023.0 1016.4
Местоположение метеостанции Ангермюнде (Германия): широта 53.03 долгота 14.00 высота над уровнем моря 55 м.
В архиве по умолчанию представлена погода в Ангермюнде за последнюю неделю. Архивные данные за месяц целиком и за предыдущие месяцы, начиная с января 2011 года, Вы можете получить, выбрав интересующий диапазон дат из раскрывающегося списка и нажав кнопку "Найти!".
*Определитесь, кто Вы:
Внимание! Время в таблицах - всемирное. Для получения местного времени необходимо прибавить поправку, которая равна 1 ч.
Смотрите также архив погоды в соседних городах и на ближайших метеорологических станциях:
Партнеры нашего сайта:      
Пояснения к столбцам:
  • Ветер - указаны скорость ветра в м/с - средняя за 10 мин, порывы в срок и между сроками (в фигурных скобках) и направление, откуда дует ветер: С - северный,
  • СВ - северо-восточный, В - восточный, ЮВ - юго-восточный, Ю - южный, ЮЗ - юго-западный, З - западный, СЗ - северо-западный.
  • Видимость - горизонтальная дальность видимости в метрах или километрах. При видимости от 1 до 10 км при отсутствии осадков обычно наблюдается дымка, при ухудшении видимости до 1 км и менее - туман. В сухую погоду видимость может ухудшаться дымом, пылью или мглою.
  • Явления - указаны атмосферные явления, наблюдавшиеся в срок или в последний час перед сроком; фигурными скобками обозначены явления, наблюдавшиеся между сроками (за 1-3 часа до срока); квадратными скобками обозначены град или гололедные отложения с указанием их диаметра в мм.
  • Облачность - указаны через наклонную черту общая и нижняя облачность в баллах и высота нижней границы облаков в метрах; квадратными скобками обозначены формы облаков: Ci - перистые, Cs - перисто-слоистые, Cc - перисто-кучевые, Ac - высококучевые, As - высокослоистые, Sc - слоисто-кучевые, Ns - слоисто-дождевые, Cu - кучевые, Cb - кучево-дождевые. Подробнее классификацию облаков см. в Атласе облаков (PDF).
  • T - Температура воздуха - температура, измеренная на высоте 2 м над землей.
  • Td - Температура точки росы - температура, при понижении до которой содержащийся в воздухе водяной пар достигнет насыщения.
  • f - Относительная влажность воздуха - влажноcть воздуха, измеренная на высоте 2 м над землей.
  • Te - Эффективная температура - температура, которую ощущает одетый по сезону человек в тени. Характеристика душности погоды. При расчете учитывается влияние влажности воздуха и скорости ветра на теплоощущения человека.
  • Tes - Эффективная температура на солнце - температура, которую ощущает человек, с поправкой на солнечный нагрев. Характеристика знойности погоды. Зависит от высоты солнца над горизонтом, облачности и скорости ветра. Ночью, в пасмурную погоду, а также при ветре 12 м/с и более поправка равна нулю.
  • P - Атмосферное давление - приведенное к уровню моря атмосферное давление.
  • Po - Атмосферное давление - измеренное на уровне метеостанции атмосферное давление.
  • Tmin - Минимальная температура - минимум температуры воздуха на высоте 2 м над землей.
  • Tmax - Максимальная температура - максимум температуры воздуха на высоте 2 м над землей.
  • R - Количество осадков - Количество выпавших осадков за период времени, мм. При наведении курсора мыши на число - период времени, за который выпало указанное количество осадков.
  • R24 - Количество осадков - Количество выпавших осадков за 24 часа, мм.
  • S - Снежный покров - Высота снежного покрова, см. При наведении курсора мыши на число - состояние снежного покрова и степень покрытия местности в баллах.